Location: Clair
(33.8067°N, 117.9845°W)
Time: 17:27:01
(UTC+00:00)

Cosmos 1000 Rocket - Pass Details

Date: 14 February 2026
Orbit: 954 x 990 km, 82.9° (Epoch: 8 March)

Event Time Altitude Azimuth Distance (km) Brightness Sun altitude
Rises 12:10:44 0° 354° (N) 3,700 7.5 -31.0°
Reaches altitude 10° 12:13:16 10° 355° (N) 2,751 6.8 -30.5°
Maximum altitude 12:19:36 88° 84° (E) 995 4.4 -29.2°
Drops below altitude 10° 12:25:54 10° 175° (S) 2,739 6.9 -27.9°
Sets 12:28:25 0° 175° (S) 3,683 7.6 -27.3°
